Location: Unspecified
(0.0000°N, 0.0000°E)
Time: 16:01:07
(UTC+00:00)

Tiros 1 - All Passes

Search period start: 11 December 2023 00:00
Search period end: 21 December 2023 00:00
Orbit: 625 x 659 km, 48.4° (Epoch: 10 December)

Date Brightness Start Highest point End Pass type
(mag) Time Alt. Az. Time Alt. Az. Time Alt. Az.
11 Dec - 00:05:12 10° W 00:08:09 17° NW 00:11:08 10° N night (unlit)
11 Dec - 10:33:51 10° NNW 10:38:33 70° NE 10:43:12 10° SE daylight
11 Dec - 22:46:04 10° SW 22:50:40 64° NW 22:55:18 10° NNE night (unlit)
12 Dec - 09:17:50 10° N 09:21:04 18° NE 09:24:17 10° E daylight
12 Dec - 10:58:43 10° WNW 11:03:01 35° SW 11:07:16 10° SSE daylight
12 Dec - 21:29:09 10° S 21:33:15 31° SE 21:37:22 10° ENE night (unlit)
12 Dec - 23:11:47 10° W 23:15:10 20° NW 23:18:34 10° N night (unlit)
13 Dec - 09:40:56 10° NNW 09:45:34 57° NE 09:50:11 10° SE daylight
13 Dec - 11:26:07 10° WSW 11:27:32 11° SW 11:28:58 10° SSW daylight
13 Dec - 21:53:04 10° SW 21:57:41 79° NW 22:02:22 10° NE night (unlit)
14 Dec - 08:25:21 10° NNE 08:28:04 15° NE 08:30:46 10° E daylight
14 Dec - 10:05:33 10° WNW 10:10:01 42° SW 10:14:28 10° SSE daylight
14 Dec - 20:36:26 10° S 20:40:16 25° SE 20:44:06 10° ENE visible
14 Dec - 22:18:27 10° WSW 22:22:10 24° NW 22:25:55 10° N night (unlit)
15 Dec - 08:48:02 10° NNW 08:52:35 46° NE 08:57:06 10° SE daylight
15 Dec - 10:32:07 10° W 10:34:32 14° SW 10:36:56 10° SSW daylight
15 Dec - 21:00:06 10° SW 21:04:43 85° SE 21:09:23 10° NE visible
16 Dec - 07:33:04 10° NNE 07:35:03 12° NE 07:37:01 10° ENE daylight
16 Dec - 09:12:25 10° NW 09:17:02 52° SW 09:21:37 10° SSE daylight
16 Dec - 19:43:47 10° S 19:47:16 21° SE 19:50:46 10° E visible
16 Dec - 21:25:12 10° WSW 21:29:11 29° NW 21:33:12 10° N visible
17 Dec - 07:55:11 10° NNW 07:59:35 38° NE 08:03:58 10° ESE daylight
17 Dec - 09:38:28 10° W 09:41:31 17° SW 09:44:33 10° S daylight
17 Dec - 20:07:09 10° SSW 20:11:44 69° SE 20:16:21 10° NE visible
18 Dec - 06:41:41 10° NE 06:42:01 10° NE 06:42:21 10° NE daylight
18 Dec - 08:19:20 10° NW 08:24:02 65° SW 08:28:43 10° SSE daylight
18 Dec - 18:51:13 10° S 18:54:17 17° SE 18:57:20 10° E visible
18 Dec - 20:32:00 10° WSW 20:36:11 34° NW 20:40:24 10° NNE visible
19 Dec - 07:02:22 10° NNW 07:06:35 31° NE 07:10:46 10° ESE daylight
19 Dec - 08:45:00 10° W 08:48:30 20° SW 08:52:00 10° S daylight
19 Dec - 19:14:15 10° SSW 19:18:46 55° SE 19:23:16 10° NE visible
19 Dec - 20:59:25 10° WNW 21:00:44 11° NW 21:02:02 10° NNW visible
20 Dec - 07:26:16 10° NW 07:31:02 80° SW 07:35:46 10° SE daylight
20 Dec - 17:58:48 10° SSE 18:01:16 14° SE 18:03:45 10° E daylight
20 Dec - 19:38:51 10° WSW 19:43:11 42° NW 19:47:34 10° NNE visible
